KLM748 TNCA-SKCL

Flight info

Callsign KLM748
Flight time N/A
Altitude 38000
Route AMBAS1F AMBAS UL335 CTG/N0487F390 UP778 RNG/N0473F240 W3 ULQ ULQ4E
Aircraft B77W/H-SDE1E2E3FGHIJ2J3J4J5M1RWXY/LB1D1

Departure

Time 2026-05-06 10:36
Airport Queen Beatrix International Airport (TNCA)

Arrival

Time N/A
Airport Alfonso Bonilla Aragon International Airport (SKCL)
Time Latitude Longitude Altitude Speed Heading
2026-05-06 10:26 12.50291 -70.00914 51 ft 0 kts 12°
2026-05-06 10:28 12.50294 -70.00913 51 ft 0 kts 12°
2026-05-06 10:30 12.50219 -70.00918 52 ft 0 kts 275°
2026-05-06 10:31 12.50219 -70.00919 52 ft 2 kts 275°
2026-05-06 10:31 12.50229 -70.00972 46 ft 10 kts 285°
2026-05-06 10:32 12.50248 -70.01043 48 ft 12 kts 285°
2026-05-06 10:32 12.50237 -70.01130 52 ft 14 kts 257°
2026-05-06 10:32 12.50248 -70.01233 50 ft 16 kts 282°
2026-05-06 10:32 12.50275 -70.01349 49 ft 19 kts 283°
2026-05-06 10:33 12.50309 -70.01484 47 ft 20 kts 285°
2026-05-06 10:33 12.50345 -70.01619 48 ft 20 kts 285°
2026-05-06 10:33 12.50373 -70.01763 48 ft 21 kts 283°
2026-05-06 10:33 12.50409 -70.01912 50 ft 22 kts 286°
2026-05-06 10:34 12.50446 -70.02066 49 ft 22 kts 284°
2026-05-06 10:34 12.50483 -70.02221 49 ft 22 kts 284°
2026-05-06 10:34 12.50519 -70.02375 49 ft 23 kts 284°
2026-05-06 10:34 12.50559 -70.02540 47 ft 25 kts 284°
2026-05-06 10:35 12.50575 -70.02624 49 ft 11 kts 271°
2026-05-06 10:35 12.50544 -70.02706 47 ft 15 kts 242°
2026-05-06 10:35 12.50470 -70.02790 40 ft 8 kts 190°
2026-05-06 10:35 12.50445 -70.02771 40 ft 8 kts 121°
2026-05-06 10:36 12.50378 -70.02540 40 ft 76 kts 103°
2026-05-06 10:36 12.50174 -70.01701 47 ft 163 kts 105°
2026-05-06 10:36 12.49863 -70.00457 671 ft 175 kts 102°
2026-05-06 10:36 12.49607 -69.99359 2124 ft 156 kts 102°
2026-05-06 10:37 12.49360 -69.98218 2652 ft 179 kts 104°
2026-05-06 10:37 12.49079 -69.96870 2876 ft 211 kts 94°
2026-05-06 10:37 12.49408 -69.95315 3369 ft 233 kts 67°
2026-05-06 10:37 12.50369 -69.93973 4399 ft 242 kts 47°
2026-05-06 10:38 12.51882 -69.93101 5216 ft 260 kts 19°
2026-05-06 10:38 12.53724 -69.93061 6106 ft 272 kts 347°
2026-05-06 10:38 12.55409 -69.93961 6948 ft 279 kts 317°
2026-05-06 10:38 12.56456 -69.95622 7736 ft 280 kts 282°
2026-05-06 10:39 12.56622 -69.97580 8488 ft 281 kts 266°
2026-05-06 10:39 12.56599 -69.99640 9108 ft 291 kts 268°
2026-05-06 10:39 12.56690 -70.01700 10109 ft 288 kts 274°
2026-05-06 10:39 12.56962 -70.03743 10868 ft 295 kts 277°
2026-05-06 10:40 12.57293 -70.05885 11318 ft 318 kts 278°
2026-05-06 10:40 12.57661 -70.08226 11618 ft 347 kts 278°
2026-05-06 10:40 12.58050 -70.10768 11908 ft 376 kts 278°
2026-05-06 10:40 12.58446 -70.13437 12873 ft 376 kts 278°
2026-05-06 10:41 12.58827 -70.16060 13984 ft 380 kts 278°
2026-05-06 10:41 12.59214 -70.18770 14751 ft 389 kts 278°
2026-05-06 10:41 12.59602 -70.21524 15672 ft 392 kts 278°
2026-05-06 10:41 12.59989 -70.24296 16629 ft 396 kts 278°
2026-05-06 10:42 12.60381 -70.27128 17420 ft 405 kts 278°
2026-05-06 10:42 12.60775 -70.29982 18456 ft 405 kts 278°
2026-05-06 10:42 12.61173 -70.32858 19274 ft 410 kts 279°
2026-05-06 10:42 12.61570 -70.35739 20315 ft 407 kts 279°
2026-05-06 10:43 12.61967 -70.38623 21220 ft 410 kts 279°
2026-05-06 10:43 12.62365 -70.41524 22130 ft 412 kts 279°
2026-05-06 10:43 12.62764 -70.44432 23077 ft 413 kts 280°
2026-05-06 10:44 12.63571 -70.50304 24524 ft 421 kts 279°
2026-05-06 10:44 12.63980 -70.53271 25076 ft 428 kts 279°
2026-05-06 10:44 12.64393 -70.56290 25844 ft 428 kts 279°
2026-05-06 10:44 12.64806 -70.59310 26505 ft 432 kts 279°
2026-05-06 10:45 12.65226 -70.62377 27105 ft 437 kts 279°
2026-05-06 10:45 12.65648 -70.65465 27813 ft 439 kts 279°
2026-05-06 10:45 12.66073 -70.68572 28368 ft 445 kts 279°
2026-05-06 10:45 12.66503 -70.71727 28950 ft 449 kts 279°
2026-05-06 10:46 12.66935 -70.74895 29741 ft 446 kts 279°
2026-05-06 10:46 12.67352 -70.77959 31255 ft 418 kts 278°
2026-05-06 10:46 12.67737 -70.80806 32940 ft 394 kts 278°
2026-05-06 10:46 12.68111 -70.83560 33839 ft 390 kts 278°
2026-05-06 10:47 12.68488 -70.86334 34130 ft 399 kts 278°
2026-05-06 10:47 12.68876 -70.89190 34263 ft 410 kts 278°
2026-05-06 10:47 12.69274 -70.92111 34465 ft 418 kts 278°
2026-05-06 10:47 12.69673 -70.95055 34703 ft 426 kts 278°
2026-05-06 10:48 12.70083 -70.98084 34901 ft 434 kts 278°
2026-05-06 10:48 12.70507 -71.01208 35085 ft 442 kts 278°
2026-05-06 10:48 12.70929 -71.04328 35520 ft 442 kts 278°
2026-05-06 10:48 12.71344 -71.07403 35997 ft 440 kts 278°
2026-05-06 10:49 12.71761 -71.10503 36493 ft 440 kts 278°
2026-05-06 10:49 12.72181 -71.13614 36777 ft 444 kts 278°
2026-05-06 10:49 12.72605 -71.16767 36981 ft 448 kts 278°
2026-05-06 10:49 12.73032 -71.19937 37272 ft 451 kts 278°
2026-05-06 10:50 12.73461 -71.23129 37579 ft 453 kts 278°
2026-05-06 10:50 12.73891 -71.26332 37810 ft 456 kts 278°
2026-05-06 10:50 12.74326 -71.29573 37902 ft 461 kts 278°
2026-05-06 10:51 12.75207 -71.36140 37968 ft 469 kts 278°
2026-05-06 10:51 12.75856 -71.42804 37958 ft 473 kts 264°
2026-05-06 10:51 12.75011 -71.46057 37971 ft 478 kts 245°
2026-05-06 10:52 12.73121 -71.48869 37965 ft 484 kts 226°
2026-05-06 10:52 12.67948 -71.53237 37966 ft 482 kts 224°
2026-05-06 10:53 12.62415 -71.57168 37967 ft 482 kts 215°
2026-05-06 10:53 12.56893 -71.61017 37959 ft 480 kts 217°
2026-05-06 10:54 12.51285 -71.64734 37962 ft 480 kts 214°
2026-05-06 10:54 12.45668 -71.68343 37961 ft 480 kts 214°
2026-05-06 10:55 12.40020 -71.72001 37949 ft 481 kts 215°
2026-05-06 10:55 12.34374 -71.75687 37951 ft 481 kts 215°
2026-05-06 10:56 12.28731 -71.79379 37951 ft 482 kts 215°
2026-05-06 10:56 12.23084 -71.83072 37949 ft 482 kts 215°
2026-05-06 10:57 12.17426 -71.86769 37946 ft 483 kts 215°
2026-05-06 10:57 12.11795 -71.90444 37947 ft 483 kts 214°
2026-05-06 10:58 12.06130 -71.94141 37942 ft 483 kts 214°
2026-05-06 10:58 12.00456 -71.97842 37936 ft 484 kts 214°
2026-05-06 10:59 11.94784 -72.01540 37944 ft 484 kts 214°
2026-05-06 10:59 11.89104 -72.05241 37948 ft 484 kts 214°
2026-05-06 11:00 11.83417 -72.08944 37932 ft 485 kts 214°
2026-05-06 11:00 11.77729 -72.12646 37940 ft 485 kts 214°
2026-05-06 11:01 11.72040 -72.16347 37943 ft 485 kts 214°
2026-05-06 11:01 11.66345 -72.20051 37934 ft 485 kts 214°
2026-05-06 11:02 11.60652 -72.23751 37937 ft 485 kts 214°
2026-05-06 11:02 11.54962 -72.27448 37941 ft 485 kts 214°
2026-05-06 11:03 11.49266 -72.31146 37934 ft 485 kts 214°
2026-05-06 11:03 11.43614 -72.34814 37937 ft 485 kts 214°
2026-05-06 11:04 11.37916 -72.38511 37939 ft 485 kts 214°
2026-05-06 11:04 11.32214 -72.42209 37942 ft 485 kts 214°
2026-05-06 11:05 11.26512 -72.45905 37945 ft 486 kts 214°
2026-05-06 11:05 11.20804 -72.49620 37875 ft 487 kts 214°
2026-05-06 11:06 11.15104 -72.53322 37941 ft 485 kts 214°
2026-05-06 11:06 11.09424 -72.56993 37975 ft 490 kts 214°
2026-05-06 11:07 11.03594 -72.60758 37958 ft 495 kts 214°
2026-05-06 11:07 10.97773 -72.64518 37962 ft 496 kts 213°
2026-05-06 11:08 10.91979 -72.68262 37966 ft 496 kts 214°
2026-05-06 11:08 10.86162 -72.72018 37969 ft 495 kts 214°
2026-05-06 11:09 10.80349 -72.75771 37974 ft 493 kts 213°
2026-05-06 11:09 10.74569 -72.79501 37970 ft 491 kts 213°
2026-05-06 11:10 10.68797 -72.83224 37977 ft 490 kts 213°
2026-05-06 11:10 10.63040 -72.86936 37985 ft 490 kts 213°
2026-05-06 11:11 10.57285 -72.90644 37985 ft 489 kts 213°
2026-05-06 11:11 10.51531 -72.94350 37981 ft 490 kts 213°
2026-05-06 11:12 10.45773 -72.98057 37980 ft 490 kts 213°
2026-05-06 11:12 10.40012 -73.01764 37983 ft 491 kts 213°
2026-05-06 11:13 10.34267 -73.05460 37976 ft 492 kts 213°
2026-05-06 11:13 10.28480 -73.09180 37980 ft 492 kts 213°
2026-05-06 11:14 10.23632 -73.12296 37975 ft 492 kts 213°
2026-05-06 11:14 10.17840 -73.16017 37970 ft 493 kts 213°
2026-05-06 11:15 10.12077 -73.19718 37962 ft 493 kts 213°
2026-05-06 11:15 10.06275 -73.23441 37954 ft 493 kts 213°
2026-05-06 11:16 10.00477 -73.27161 37950 ft 493 kts 213°
2026-05-06 11:16 9.94676 -73.30882 37939 ft 493 kts 213°
2026-05-06 11:17 9.88873 -73.34602 37930 ft 493 kts 213°
2026-05-06 11:17 9.83098 -73.38302 37923 ft 492 kts 213°
2026-05-06 11:18 9.77302 -73.42015 37918 ft 492 kts 213°
2026-05-06 11:18 9.71511 -73.45722 37917 ft 492 kts 213°
2026-05-06 11:19 9.65718 -73.49430 37912 ft 492 kts 212°
2026-05-06 11:19 9.59942 -73.53125 37910 ft 492 kts 212°
2026-05-06 11:20 9.54183 -73.56807 37905 ft 492 kts 213°